Location: Yucca Valley
(34.1140°N, 116.4310°W)
Time: 19:35:13
(UTC-08:00)

Daily predictions for brighter satellites

Satellite Brightness Start Highest point End
(mag) Time Altitude Azimuth Time Altitude Azimuth Time Altitude Azimuth
IDEFIX/ARIANE 42P 3.0 17:23:23 10° S 17:28:33 72° WSW 17:33:48 10° NNW
Cosmos 2333 Rocket 2.7 17:24:01 10° SSW 17:29:36 66° WNW 17:35:14 10° NNE
Cosmos 1328 Rocket 4.0 17:25:35 10° NNW 17:30:01 69° W 17:34:25 10° S
Cosmos 2219 Rocket 3.2 17:25:10 10° SW 17:30:37 49° WNW 17:36:03 10° N
Aureole 2 Rocket 2.7 17:27:51 10° S 17:31:24 60° ESE 17:35:18 10° NNE
Intelsat 5-1 Rocket 3.7 17:31:49 10° SSW 17:32:55 12° S 17:34:11 10° SE
Cosmos 1703 4.2 17:32:34 10° SSE 17:35:52 27° E 17:39:11 10° NNE
Cosmos 1151 Rocket 3.0 17:32:38 10° N 17:36:54 65° E 17:41:09 10° SSE
Cosmos 1515 Rocket 3.9 17:36:16 10° N 17:40:43 72° W 17:45:07 10° S
SMAP 3.9 17:37:26 10° S 17:41:59 57° W 17:46:35 10° NNW
Cosmos 1455 3.9 17:40:44 10° NE 17:42:36 13° ENE 17:44:28 10° ESE
Cosmos 1805 Rocket 4.1 17:39:25 10° SSE 17:43:32 37° E 17:47:39 10° NNE
Cosmos 2278 Rocket 2.2 17:39:57 10° NNW 17:45:37 67° ENE 17:51:15 10° SSE
Cosmos 1726 2.1 17:42:15 10° N 17:46:01 84° E 17:49:48 10° S
SKYMED 2 3.5 17:43:07 10° NNE 17:47:28 78° ESE 17:51:47 10° S
FREGAT/IRIS 4.3 17:48:26 10° ESE 17:50:13 15° ENE 17:52:01 10° NE
Cosmos 372 Rocket 3.9 17:49:43 10° NNW 17:54:48 68° ENE 17:59:52 10° SSE
Cosmos 540 Rocket 4.5 17:52:38 10° SW 17:57:37 48° WNW 18:02:37 10° N
Cosmos 1340 Rocket 2.7 17:56:15 10° S 18:00:11 90° SW 18:04:08 10° N
Sich 1 3.6 17:56:41 10° SSE 18:00:46 37° E 18:04:51 10° NNE
SL-14 R/B 4.4 17:57:20 10° SSW 18:01:06 47° W 18:04:56 10° N
Atlas Centaur 2 4.4 17:58:51 10° WSW 18:01:51 15° SSW 18:04:32 10° S
Cosmos 1300 3.4 17:58:29 10° NNW 18:02:16 59° W 18:06:02 10° S
OAO 1 Rocket 4.4 17:57:29 10° W 18:02:49 89° N 18:07:14 15° E
Meteor 1-27 4.2 17:57:39 10° N 18:03:31 79° E 18:09:20 10° S
Cosmos 1484 Rocket 3.3 18:00:08 10° S 18:04:01 65° W 18:07:58 10° NNW
Cosmos 2058 3.4 18:01:14 10° SSW 18:05:18 61° W 18:09:22 10° N
Cosmos 1461 3.0 18:01:43 10° SSW 18:05:56 76° WNW 18:10:03 10° NNE
Cosmos 2237 Rocket 3.4 18:00:44 10° SW 18:06:00 41° WNW 18:11:18 10° N
Cosmos 1633 Rocket 3.5 18:04:14 10° SSE 18:08:20 39° E 18:12:26 10° NNE
FAST Rocket 4.0 18:06:19 10° S 18:09:00 50° E 18:10:56 16° NNE
SL-16 R/B 2.2 18:07:12 10° SSW 18:12:51 89° WNW 18:18:32 10° NNE
USA 215 3.8 18:08:58 15° E 18:13:52 38° NE 18:19:47 10° NNW
Cosmos 304 Rocket 4.2 18:12:12 10° SSW 18:16:58 63° WNW 18:21:45 10° N
OTV 4 1.7 18:17:37 10° W 18:20:23 36° SSW 18:22:13 17° SE
Meteor 1-28 Rocket 4.3 18:23:01 10° N 18:26:35 44° WNW 18:30:07 10° SSW
Coronas F rocket 3.1 18:24:25 10° S 18:25:10 17° SSE 18:25:10 17° SSE
Cosmos 1356 Rocket 3.3 18:22:54 10° S 18:26:54 84° W 18:30:54 10° N
Cosmos 2297 3.6 18:22:41 10° NNW 18:28:24 71° ENE 18:34:06 10° SSE
Milstar 3 4.0 18:25:06 10° W 18:31:11 36° SSW 18:37:53 10° SE
Cosmos 1707 Rocket 3.5 18:31:47 10° N 18:36:08 87° W 18:40:28 10° S
Cosmos 1900 4.2 18:31:57 10° NNW 18:36:54 65° ENE 18:41:18 13° SE
Cosmos 1184 Rocket 2.9 18:35:08 10° SSW 18:38:27 74° W 18:40:05 28° N
Resurs 01 Rocket 2.3 18:41:22 35° NE 18:41:22 35° NE 18:44:24 10° N
Tiangong 1 2.5 18:38:25 10° SSW 18:40:17 26° S 18:40:17 26° S
Aureole 1 Rocket 3.6 18:36:21 10° SSW 18:41:16 81° ESE 18:47:55 10° NNE
Spot 2 Rocket 3.7 18:37:05 10° SE 18:41:52 45° ENE 18:46:40 10° N
Cosmos 1666 Rocket 4.0 18:38:24 10° SSW 18:42:40 60° W 18:47:00 10° N
Lacrosse 5 rocket 1.6 18:40:07 10° NW 18:43:56 62° SW 18:46:42 19° SSE
FENGYUN 3A 3.6 18:43:13 10° SSE 18:48:27 58° ENE 18:53:43 10° N
Cosmos 1933 Rocket 3.8 18:49:52 10° S 18:53:28 51° SE 18:53:28 51° SE
USA 229 DEB 3.7 18:48:31 10° SSW 18:55:22 82° WNW 18:59:43 25° NNE
USA 229 3.7 18:48:37 10° SSW 18:55:28 83° WNW 18:59:46 25° NNE
Iridium 4 Rocket 3.1 18:52:26 10° S 18:57:04 85° W 18:59:35 25° N
Cosmos 1627 Rocket 4.4 18:54:26 10° S 19:00:32 61° E 19:03:13 34° NNE
ALOS 2.1 18:56:32 10° SSE 19:01:11 83° ENE 19:05:51 10° N
Cosmos 1626 4.4 18:58:54 10° SW 19:02:00 25° WNW 19:05:07 10° NNW
Cosmos 923 Rocket 3.9 18:58:17 10° SSW 19:03:30 86° WNW 19:05:15 43° NNE
SJ-6B 4.3 19:03:49 10° SSW 19:07:35 38° W 19:11:27 10° NNW
BREEZE-M DEB (TANK) 3.8 19:03:51 10° SSW 19:07:51 58° SE 19:09:57 45° ENE
FengYun 1-2 T 4.2 19:02:34 10° SSE 19:08:08 86° WSW 19:13:42 10° NNW
Cosmos 1680 Rocket 3.3 19:05:33 10° SSW 19:10:45 83° ESE 19:10:57 80° ENE
Cosmos 292 Rocket 3.8 19:08:32 10° SSW 19:13:16 76° WNW 19:13:25 75° NW
Cosmos 1470 Rocket 3.9 19:11:13 10° SSW 19:15:07 61° WSW 19:15:07 61° WSW
Cosmos 1603 3.8 19:11:49 10° SSW 19:17:25 71° WNW 19:18:58 48° N
Cosmos 2242 Rocket 4.1 19:13:31 10° NNW 19:17:52 57° W 19:22:13 10° S
Cosmos 1455 4.1 19:15:01 10° NNW 19:18:21 29° W 19:21:40 10° SSW
Cosmos 2026 Rocket 3.9 19:25:18 10° S 19:31:32 82° W 19:32:28 66° NNW
NOSS 3-1 (C) 4.2 19:42:26 10° SSW 19:46:00 41° SSW 19:46:00 41° SSW
H-2A ROCKET BODY 3.1 19:39:09 10° W 19:51:58 50° SSW 19:51:58 50° SSW
USA 215 3.6 19:56:21 57° SW 19:56:37 58° SW 20:03:04 10° NW
